Location: Norton
(51.3000°N, 0.8167°E)
Time: 14:08:39
(UTC+00:00)

SL-08 R/B - Pass Details

Date: 03 March 2021
Orbit: 949 x 1019 km, 82.9° (Epoch: 11 April)

Event Time Altitude Azimuth Distance (km) Brightness Sun altitude
Exits shadow 20:11:53 19° 175° (S) 2,208 6.1 -24.0°
Maximum altitude 20:16:40 70° 95° (E) 1,081 4.4 -24.7°
Drops below altitude 10° 20:23:07 10° 13° (NNE) 2,819 7.0 -25.6°
Sets 20:25:41 0° 12° (NNE) 3,772 7.7 -26.0°
